CW0858 Weather Reports


time (UTC)temp
C
wind
direction
speed
KPH
gust
KPH
rain 1hr
cm
rain 24hr
cm
rain mn
cm
humidity
%
barometer
mb
20260507063028 13 0 0.0 3.2 0.00 0.00 0.00 80 1021.0
20260507061530 13 359 1.6 4.8 0.00 0.00 0.00 79 1021.0
20260507060030 13 17 0.0 3.2 0.00 0.00 0.00 79 1021.0
20260507054528 13 25 0.0 1.6 0.00 0.00 0.00 79 1021.0
20260507053030 13 0 0.0 1.6 0.00 0.00 0.00 79 1020.9
20260507051528 13 0 0.0 6.4 0.00 0.00 0.00 77 1020.9
20260507050030 13 0 0.0 4.8 0.00 0.00 0.00 77 1021.0
20260507044528 14 50 0.0 6.4 0.00 0.00 0.00 77 1021.0
20260507043029 14 354 1.6 8.0 0.00 0.00 0.00 76 1020.9
20260507041530 14 68 1.6 8.0 0.00 0.00 0.00 76 1020.8
20260507040029 14 120 1.6 11.3 0.00 0.00 0.00 76 1020.6
20260507034534 15 0 1.6 11.3 0.00 0.00 0.00 75 1020.5
20260507033030 15 27 3.2 8.0 0.00 0.00 0.00 74 1020.1
20260507031527 15 0 0.0 9.7 0.00 0.00 0.00 74 1020.0
20260507030028 16 0 1.6 4.8 0.00 0.00 0.00 73 1019.9
20260507024527 16 11 1.6 9.7 0.00 0.00 0.00 72 1019.7
20260507023030 16 352 1.6 8.0 0.00 0.00 0.00 71 1019.6
20260507021529 17 354 1.6 9.7 0.00 0.00 0.00 71 1019.5
20260507020045 17 351 1.6 6.4 0.00 0.00 0.00 69 1019.6
20260507014531 17 36 6.4 11.3 0.00 0.00 0.00 69 1019.7
20260507013030 18 347 1.6 9.7 0.00 0.00 0.00 68 1019.6
20260507011540 18 26 3.2 11.3 0.00 0.00 0.00 67 1019.5
20260507010033 19 16 4.8 9.7 0.00 0.00 0.00 66 1019.5
20260507004532 19 306 1.6 11.3 0.00 0.00 0.00 67 1019.5
20260507003030 19 335 3.2 16.1 0.00 0.00 0.00 66 1019.4
20260507001600 20 122 4.8 11.3 0.00 0.00 0.00 65 1019.3
20260507000037 20 26 0.0 3.2 0.00 0.00 0.00 63 1019.3
20260506234528 20 0 0.0 3.2 0.00 0.00 0.00 63 1019.2
20260506233030 20 28 0.0 3.2 0.00 0.00 0.00 63 1019.3
20260506231531 20 0 0.0 8.0 0.00 0.00 0.00 64 1019.3
20260506230049 20 0 0.0 4.8 0.00 0.00 0.00 63 1019.5
20260506224530 20 0 0.0 6.4 0.00 0.00 0.00 63 1019.6
20260506223032 20 0 1.6 6.4 0.00 0.00 0.00 63 1019.7
20260506221530 20 137 0.0 6.4 0.00 0.00 0.00 64 1019.7
20260506220035 20 0 0.0 8.0 0.00 0.00 0.00 65 1019.8
20260506214529 20 134 1.6 8.0 0.00 0.00 0.00 64 1019.7
20260506213028 19 173 0.0 4.8 0.00 0.00 0.00 65 1019.7
20260506211528 19 0 0.0 3.2 0.00 0.00 0.00 66 1020.0
20260506210046 18 0 0.0 4.8 0.00 0.00 0.00 68 1020.1
20260506204531 19 0 0.0 3.2 0.00 0.00 0.00 68 1020.2
20260506203030 19 115 1.6 8.0 0.00 0.00 0.00 68 1020.0
20260506201528 18 118 0.0 6.4 0.00 0.00 0.00 70 1020.0
20260506200032 18 114 1.6 6.4 0.00 0.00 0.00 69 1020.2
20260506194530 17 106 1.6 4.8 0.00 0.00 0.00 73 1020.4
20260506193037 17 309 0.0 3.2 0.00 0.00 0.00 73 1020.6
20260506191530 17 0 0.0 3.2 0.00 0.00 0.00 74 1020.6
20260506190031 17 115 1.6 3.2 0.00 0.00 0.00 72 1020.4
20260506184537 17 101 0.0 9.7 0.00 0.00 0.00 73 1020.5
20260506183032 17 122 1.6 9.7 0.00 0.00 0.00 73 1020.2
20260506181538 16 270 0.0 8.0 0.00 0.00 0.00 75 1020.4
20260506180033 16 88 0.0 4.8 0.00 0.00 0.00 79 1020.5
20260506174534 15 0 0.0 3.2 0.00 0.00 0.00 79 1020.6
20260506173029 15 0 0.0 1.6 0.00 0.00 0.00 81 1020.5
20260506171534 15 0 0.0 1.6 0.00 0.00 0.00 82 1020.1
20260506170031 15 127 0.0 1.6 0.00 0.00 0.00 81 1020.2
20260506164545 15 0 0.0 1.6 0.00 0.00 0.00 83 1020.4
20260506163030 14 0 0.0 3.2 0.00 0.00 0.00 83 1020.3
20260506161528 14 0 0.0 3.2 0.00 0.00 0.00 82 1020.1
20260506160030 14 0 0.0 3.2 0.00 0.00 0.00 83 1020.0
20260506154533 13 107 0.0 6.4 0.00 0.00 0.00 84 1019.8
20260506153030 13 131 1.6 4.8 0.00 0.00 0.00 84 1019.4
20260506151530 13 0 0.0 1.6 0.00 0.00 0.00 85 1020.2
20260506150030 13 103 0.0 1.6 0.00 0.00 0.00 85 1020.3
20260506144530 13 0 0.0 1.6 0.00 0.00 0.00 84 1020.1
20260506143037 13 0 0.0 3.2 0.00 0.00 0.00 84 1020.0
20260506141533 13 0 0.0 3.2 0.00 0.00 0.00 84 1019.5
20260506140030 13 124 0.0 4.8 0.00 0.00 0.00 84 1019.4
20260506134527 13 124 0.0 3.2 0.00 0.00 0.00 85 1019.3
20260506133029 13 0 0.0 1.6 0.00 0.00 0.00 84 1019.3
20260506131528 13 0 0.0 3.2 0.00 0.00 0.00 85 1019.1
20260506130028 13 123 0.0 4.8 0.00 0.00 0.00 84 1018.9
20260506124530 13 0 0.0 1.6 0.00 0.00 0.00 85 1018.9
20260506123028 13 0 0.0 0.0 0.00 0.00 0.00 86 1018.7
20260506121529 13 0 0.0 0.0 0.00 0.00 0.00 86 1018.9
20260506120050 14 0 0.0 0.0 0.00 0.00 0.00 85 1018.7
20260506114532 14 0 0.0 0.0 0.00 0.00 0.00 85 1018.7
20260506113028 14 0 0.0 0.0 0.00 0.00 0.00 84 1018.4
20260506111527 14 0 0.0 0.0 0.00 0.00 0.00 84 1018.4
20260506110032 14 0 0.0 0.0 0.00 0.00 0.00 84 1018.1
20260506104538 14 0 0.0 0.0 0.00 0.00 0.00 86 1017.8
20260506103039 14 0 0.0 0.0 0.00 0.00 0.00 86 1017.7
20260506101528 14 0 0.0 0.0 0.00 0.00 0.00 86 1017.5
20260506100027 14 0 0.0 0.0 0.00 0.00 0.00 86 1017.5
20260506094528 15 0 0.0 0.0 0.00 0.00 0.00 86 1017.4
20260506093028 15 0 0.0 0.0 0.00 0.00 0.00 85 1017.1
20260506091528 15 0 0.0 0.0 0.00 0.00 0.00 85 1017.1
20260506090028 15 0 0.0 0.0 0.00 0.00 0.00 84 1017.0
20260506084603 15 0 0.0 0.0 0.00 0.00 0.00 84 1017.0
20260506083028 15 0 0.0 0.0 0.00 0.00 0.00 84 1017.0
20260506081538 15 0 0.0 0.0 0.00 0.00 0.00 83 1017.0
20260506073029 15 0 0.0 0.0 0.00 0.00 0.00 82 1016.7
20260506071532 15 0 0.0 0.0 0.00 0.00 0.00 83 1016.7